Time,TemperatureF,DewpointF,PressureIn,WindDirection,WindDirectionDegrees,WindSpeedMPH,WindSpeedGustMPH,Humidity,HourlyPrecipIn,Conditions,Clouds,dailyrainin,SoftwareType,DateUTC
2013-03-27 00:02:00,45.6,29.9,30.28,SE,127,8.0,11.0,54,0.00,,---,0.00,VWS V14.00,2013-03-27 05:02:00,
2013-03-27 00:08:00,45.5,29.8,30.28,SE,128,8.0,12.0,54,0.00,,---,0.00,VWS V14.00,2013-03-27 05:08:00,
2013-03-27 00:13:00,45.2,30.0,30.28,SE,125,6.0,9.0,55,0.00,,---,0.00,VWS V14.00,2013-03-27 05:13:00,
2013-03-27 00:18:00,45.1,29.9,30.28,SE,125,9.0,10.0,55,0.00,,---,0.00,VWS V14.00,2013-03-27 05:18:00,
2013-03-27 00:23:00,45.0,30.3,30.28,SE,128,7.0,11.0,56,0.00,,---,0.00,VWS V14.00,2013-03-27 05:23:00,
2013-03-27 00:29:00,44.9,30.2,30.28,SE,131,6.0,11.0,56,0.00,,---,0.00,VWS V14.00,2013-03-27 05:29:00,
2013-03-27 00:34:00,44.8,30.1,30.28,ESE,118,9.0,12.0,56,0.00,,---,0.00,VWS V14.00,2013-03-27 05:34:00,
2013-03-27 00:39:00,44.6,30.3,30.28,ESE,117,8.0,11.0,57,0.00,,---,0.00,VWS V14.00,2013-03-27 05:39:00,
2013-03-27 00:44:00,44.4,30.1,30.28,SE,126,7.0,11.0,57,0.00,,---,0.00,VWS V14.00,2013-03-27 05:44:00,
2013-03-27 00:49:00,44.3,30.0,30.27,SE,125,9.0,11.0,57,0.00,,---,0.00,VWS V14.00,2013-03-27 05:49:00,
2013-03-27 00:54:00,44.2,30.4,30.27,SE,135,8.0,11.0,58,0.00,,---,0.00,VWS V14.00,2013-03-27 05:54:00,
2013-03-27 00:59:00,44.1,30.3,30.27,SE,128,9.0,11.0,58,0.00,,---,0.00,VWS V14.00,2013-03-27 05:59:00,
2013-03-27 01:04:00,44.0,30.2,30.26,ESE,119,7.0,11.0,58,0.00,,---,0.00,VWS V14.00,2013-03-27 06:04:00,
2013-03-27 01:10:00,43.9,30.1,30.27,SE,134,5.0,11.0,58,0.00,,---,0.00,VWS V14.00,2013-03-27 06:10:00,
2013-03-27 01:15:00,43.8,30.4,30.27,SE,131,4.0,10.0,59,0.00,,---,0.00,VWS V14.00,2013-03-27 06:15:00,
2013-03-27 01:20:00,43.6,30.2,30.26,SE,125,7.0,9.0,59,0.00,,---,0.00,VWS V14.00,2013-03-27 06:20:00,
2013-03-27 01:25:00,43.6,30.2,30.26,SE,133,6.0,10.0,59,0.00,,---,0.00,VWS V14.00,2013-03-27 06:25:00,
2013-03-27 01:30:00,43.6,30.2,30.26,SE,135,7.0,12.0,59,0.00,,---,0.00,VWS V14.00,2013-03-27 06:30:00,
2013-03-27 01:35:00,43.7,30.3,30.26,SE,139,7.0,11.0,59,0.00,,---,0.00,VWS V14.00,2013-03-27 06:35:00,
2013-03-27 01:40:00,43.6,30.2,30.26,SE,129,8.0,10.0,59,0.00,,---,0.00,VWS V14.00,2013-03-27 06:40:00,
2013-03-27 01:46:00,43.5,30.5,30.26,SE,138,6.0,11.0,60,0.00,,---,0.00,VWS V14.00,2013-03-27 06:46:00,
2013-03-27 01:51:00,43.4,30.5,30.26,SE,145,6.0,10.0,60,0.00,,---,0.00,VWS V14.00,2013-03-27 06:51:00,
2013-03-27 01:56:00,43.2,30.7,30.26,SE,124,6.0,10.0,61,0.00,,---,0.00,VWS V14.00,2013-03-27 06:56:00,
2013-03-27 02:01:00,43.0,30.5,30.26,SE,139,10.0,10.0,61,0.00,,---,0.00,VWS V14.00,2013-03-27 07:01:00,
2013-03-27 02:07:00,42.8,30.7,30.26,SE,141,5.0,11.0,62,0.00,,---,0.00,VWS V14.00,2013-03-27 07:07:00,
2013-03-27 02:12:00,42.6,30.5,30.26,SE,131,6.0,9.0,62,0.00,,---,0.00,VWS V14.00,2013-03-27 07:12:00,
2013-03-27 02:17:00,42.3,30.6,30.25,SE,129,6.0,8.0,63,0.00,,---,0.00,VWS V14.00,2013-03-27 07:17:00,
2013-03-27 02:22:00,42.0,30.7,30.25,SE,131,5.0,7.0,64,0.00,,---,0.00,VWS V14.00,2013-03-27 07:22:00,
2013-03-27 02:27:00,41.8,30.9,30.25,SE,129,3.0,8.0,65,0.00,,---,0.00,VWS V14.00,2013-03-27 07:27:00,
2013-03-27 02:32:00,41.6,30.7,30.25,SE,132,5.0,7.0,65,0.00,,---,0.00,VWS V14.00,2013-03-27 07:32:00,
2013-03-27 02:38:00,41.6,30.7,30.25,SE,133,6.0,10.0,65,0.00,,---,0.00,VWS V14.00,2013-03-27 07:38:00,
2013-03-27 02:43:00,41.5,30.2,30.25,SE,129,5.0,9.0,64,0.00,,---,0.00,VWS V14.00,2013-03-27 07:43:00,
2013-03-27 02:48:00,41.6,30.0,30.25,SE,133,5.0,9.0,63,0.00,,---,0.00,VWS V14.00,2013-03-27 07:48:00,
2013-03-27 02:53:00,41.8,29.8,30.25,SE,139,7.0,10.0,62,0.00,,---,0.00,VWS V14.00,2013-03-27 07:53:00,
2013-03-27 02:58:00,42.0,29.5,30.25,SE,134,8.0,12.0,61,0.00,,---,0.00,VWS V14.00,2013-03-27 07:58:00,
2013-03-27 03:04:00,42.2,28.9,30.25,SE,133,8.0,10.0,59,0.00,,---,0.00,VWS V14.00,2013-03-27 08:04:00,
2013-03-27 03:09:00,42.2,28.9,30.25,SE,145,6.0,11.0,59,0.00,,---,0.00,VWS V14.00,2013-03-27 08:09:00,
2013-03-27 03:14:00,42.3,28.6,30.24,SE,138,10.0,12.0,58,0.00,,---,0.00,VWS V14.00,2013-03-27 08:14:00,
2013-03-27 03:19:00,42.4,29.9,30.24,SE,133,9.0,12.0,61,0.00,,---,0.00,VWS V14.00,2013-03-27 08:19:00,
2013-03-27 03:24:00,42.3,28.2,30.24,SE,139,7.0,12.0,57,0.00,,---,0.00,VWS V14.00,2013-03-27 08:24:00,
2013-03-27 03:29:00,42.4,28.3,30.24,SE,142,9.0,12.0,57,0.00,,---,0.00,VWS V14.00,2013-03-27 08:29:00,
2013-03-27 03:35:00,42.2,28.1,30.24,SE,142,7.0,13.0,57,0.00,,---,0.00,VWS V14.00,2013-03-27 08:35:00,
2013-03-27 03:40:00,42.1,28.0,30.24,SE,137,5.0,12.0,57,0.00,,---,0.00,VWS V14.00,2013-03-27 08:40:00,
2013-03-27 03:45:00,42.0,27.9,30.24,SE,129,4.0,13.0,57,0.00,,---,0.00,VWS V14.00,2013-03-27 08:45:00,
2013-03-27 03:50:00,41.8,28.1,30.23,ESE,123,8.0,11.0,58,0.00,,---,0.00,VWS V14.00,2013-03-27 08:50:00,
2013-03-27 03:55:00,41.6,27.9,30.23,SE,145,5.0,10.0,58,0.00,,---,0.00,VWS V14.00,2013-03-27 08:55:00,
2013-03-27 04:00:00,41.5,27.8,30.23,ESE,122,7.0,11.0,58,0.00,,---,0.00,VWS V14.00,2013-03-27 09:00:00,
2013-03-27 04:05:00,41.5,27.8,30.23,SE,143,5.0,12.0,58,0.00,,---,0.00,VWS V14.00,2013-03-27 09:05:00,
2013-03-27 04:11:00,41.4,27.8,30.24,SE,144,7.0,9.0,58,0.00,,---,0.00,VWS V14.00,2013-03-27 09:11:00,
2013-03-27 04:16:00,41.4,27.8,30.23,SE,145,7.0,12.0,58,0.00,,---,0.00,VWS V14.00,2013-03-27 09:16:00,
2013-03-27 04:21:00,41.3,27.6,30.23,SSE,149,5.0,12.0,58,0.00,,---,0.00,VWS V14.00,2013-03-27 09:21:00,
2013-03-27 04:27:00,41.3,28.9,30.24,SE,142,4.0,10.0,61,0.00,,---,0.00,VWS V14.00,2013-03-27 09:27:00,
2013-03-27 04:33:00,41.1,27.5,30.23,SE,134,6.0,8.0,58,0.00,,---,0.00,VWS V14.00,2013-03-27 09:33:00,
2013-03-27 04:38:00,40.9,27.3,30.23,SSE,148,7.0,10.0,58,0.00,,---,0.00,VWS V14.00,2013-03-27 09:38:00,
2013-03-27 04:43:00,40.8,27.2,30.23,SE,141,5.0,8.0,58,0.00,,---,0.00,VWS V14.00,2013-03-27 09:43:00,
2013-03-27 04:48:00,40.8,27.2,30.23,SE,145,7.0,8.0,58,0.00,,---,0.00,VWS V14.00,2013-03-27 09:48:00,
2013-03-27 04:54:00,40.9,27.3,30.23,SE,134,6.0,10.0,58,0.00,,---,0.00,VWS V14.00,2013-03-27 09:54:00,
2013-03-27 04:59:00,40.8,27.2,30.23,SSE,164,6.0,10.0,58,0.00,,---,0.00,VWS V14.00,2013-03-27 09:59:00,
2013-03-27 05:04:00,40.7,27.1,30.23,SE,144,9.0,10.0,58,0.00,,---,0.00,VWS V14.00,2013-03-27 10:04:00,
2013-03-27 05:09:00,40.7,27.1,30.23,SSE,147,6.0,9.0,58,0.00,,---,0.00,VWS V14.00,2013-03-27 10:09:00,
2013-03-27 05:15:00,40.6,27.0,30.23,ESE,122,8.0,9.0,58,0.00,,---,0.00,VWS V14.00,2013-03-27 10:15:00,
2013-03-27 05:20:00,40.3,26.7,30.23,SE,129,5.0,8.0,58,0.00,,---,0.00,VWS V14.00,2013-03-27 10:20:00,
2013-03-27 05:25:00,40.2,26.6,30.23,ESE,119,3.0,9.0,58,0.00,,---,0.00,VWS V14.00,2013-03-27 10:25:00,
2013-03-27 05:30:00,40.0,26.8,30.23,SE,126,2.0,8.0,59,0.00,,---,0.00,VWS V14.00,2013-03-27 10:30:00,
2013-03-27 05:35:00,39.9,26.8,30.23,SE,129,5.0,10.0,59,0.00,,---,0.00,VWS V14.00,2013-03-27 10:35:00,
2013-03-27 05:40:00,39.8,26.7,30.23,SE,136,4.0,8.0,59,0.00,,---,0.00,VWS V14.00,2013-03-27 10:40:00,
2013-03-27 05:45:00,39.8,26.7,30.23,ESE,121,3.0,8.0,59,0.00,,---,0.00,VWS V14.00,2013-03-27 10:45:00,
2013-03-27 05:50:00,39.7,26.6,30.23,SE,125,5.0,8.0,59,0.00,,---,0.00,VWS V14.00,2013-03-27 10:50:00,
2013-03-27 05:56:00,39.7,26.6,30.23,SE,124,8.0,12.0,59,0.00,,---,0.00,VWS V14.00,2013-03-27 10:56:00,
2013-03-27 06:02:00,39.6,26.5,30.23,SE,129,6.0,11.0,59,0.00,,---,0.00,VWS V14.00,2013-03-27 11:02:00,
2013-03-27 06:07:00,39.5,26.8,30.23,ESE,121,5.0,9.0,60,0.00,,---,0.00,VWS V14.00,2013-03-27 11:07:00,
2013-03-27 06:12:00,39.3,26.6,30.23,SE,124,5.0,7.0,60,0.00,,---,0.00,VWS V14.00,2013-03-27 11:12:00,
2013-03-27 06:17:00,39.2,26.5,30.23,ESE,117,5.0,7.0,60,0.00,,---,0.00,VWS V14.00,2013-03-27 11:17:00,
2013-03-27 06:23:00,39.1,26.8,30.23,ESE,118,3.0,7.0,61,0.00,,---,0.00,VWS V14.00,2013-03-27 11:23:00,
2013-03-27 06:28:00,39.0,26.7,30.23,ESE,114,2.0,5.0,61,0.00,,---,0.00,VWS V14.00,2013-03-27 11:28:00,
2013-03-27 06:33:00,38.9,26.6,30.23,ESE,116,3.0,8.0,61,0.00,,---,0.00,VWS V14.00,2013-03-27 11:33:00,
2013-03-27 06:38:00,38.7,26.8,30.24,ESE,114,7.0,7.0,62,0.00,,---,0.00,VWS V14.00,2013-03-27 11:38:00,
2013-03-27 06:44:00,38.5,27.0,30.24,ESE,119,4.0,8.0,63,0.00,,---,0.00,VWS V14.00,2013-03-27 11:44:00,
2013-03-27 06:49:00,38.3,27.2,30.24,SE,126,2.0,7.0,64,0.00,,---,0.00,VWS V14.00,2013-03-27 11:49:00,
2013-03-27 06:54:00,38.2,27.1,30.25,SE,129,2.0,6.0,64,0.00,,---,0.00,VWS V14.00,2013-03-27 11:54:00,
2013-03-27 07:00:00,38.1,27.0,30.24,SE,129,4.0,4.0,64,0.00,,---,0.00,VWS V14.00,2013-03-27 12:00:00,
2013-03-27 07:05:00,37.9,26.8,30.25,SE,129,2.0,5.0,64,0.00,,---,0.00,VWS V14.00,2013-03-27 12:05:00,
2013-03-27 07:10:00,37.9,26.8,30.25,SE,128,3.0,4.0,64,0.00,,---,0.00,VWS V14.00,2013-03-27 12:10:00,
2013-03-27 07:15:00,37.7,27.0,30.25,SE,127,2.0,4.0,65,0.00,,---,0.00,VWS V14.00,2013-03-27 12:15:00,
2013-03-27 07:20:00,37.5,26.8,30.25,SE,127,4.0,4.0,65,0.00,,---,0.00,VWS V14.00,2013-03-27 12:20:00,
2013-03-27 07:26:00,37.4,27.1,30.25,ESE,118,4.0,5.0,66,0.00,,---,0.00,VWS V14.00,2013-03-27 12:26:00,
2013-03-27 07:31:00,37.6,27.3,30.25,ESE,118,3.0,5.0,66,0.00,,---,0.00,VWS V14.00,2013-03-27 12:31:00,
2013-03-27 07:37:00,37.8,27.5,30.25,ESE,108,5.0,5.0,66,0.00,,---,0.00,VWS V14.00,2013-03-27 12:37:00,
2013-03-27 07:42:00,37.8,27.5,30.24,ESE,109,4.0,7.0,66,0.00,,---,0.00,VWS V14.00,2013-03-27 12:42:00,
2013-03-27 07:47:00,38.1,27.8,30.25,ESE,112,3.0,8.0,66,0.00,,---,0.00,VWS V14.00,2013-03-27 12:47:00,
2013-03-27 07:52:00,38.4,27.7,30.25,ESE,114,2.0,7.0,65,0.00,,---,0.00,VWS V14.00,2013-03-27 12:52:00,
2013-03-27 07:57:00,38.7,28.0,30.25,ESE,114,2.0,5.0,65,0.00,,---,0.00,VWS V14.00,2013-03-27 12:57:00,
2013-03-27 08:03:00,38.9,28.1,30.25,ESE,114,3.0,5.0,65,0.00,,---,0.00,VWS V14.00,2013-03-27 13:03:00,
2013-03-27 08:08:00,39.1,28.3,30.26,ESE,114,3.0,5.0,65,0.00,,---,0.00,VWS V14.00,2013-03-27 13:08:00,
2013-03-27 08:13:00,39.2,28.8,30.25,ESE,114,2.0,8.0,66,0.00,,---,0.00,VWS V14.00,2013-03-27 13:13:00,
2013-03-27 08:18:00,39.8,28.6,30.25,ESE,120,7.0,8.0,64,0.00,,---,0.00,VWS V14.00,2013-03-27 13:18:00,
2013-03-27 08:24:00,40.5,29.3,30.25,ESE,116,4.0,8.0,64,0.00,,---,0.00,VWS V14.00,2013-03-27 13:24:00,
2013-03-27 08:29:00,41.0,30.5,30.25,SE,127,4.0,7.0,66,0.00,,---,0.00,VWS V14.00,2013-03-27 13:29:00,
2013-03-27 08:34:00,41.6,29.6,30.25,SE,129,5.0,8.0,62,0.00,,---,0.00,VWS V14.00,2013-03-27 13:34:00,
2013-03-27 08:40:00,42.2,30.1,30.25,SE,143,10.0,11.0,62,0.00,,---,0.00,VWS V14.00,2013-03-27 13:40:00,
2013-03-27 08:45:00,43.6,30.6,30.25,SE,135,7.0,12.0,60,0.00,,---,0.00,VWS V14.00,2013-03-27 13:45:00,
2013-03-27 08:50:00,44.8,32.2,30.25,SE,137,4.0,11.0,61,0.00,,---,0.00,VWS V14.00,2013-03-27 13:50:00,
2013-03-27 08:55:00,46.3,31.5,30.25,South,178,8.0,10.0,56,0.00,,---,0.00,VWS V14.00,2013-03-27 13:55:00,
2013-03-27 09:00:00,48.3,31.5,30.26,SE,131,5.0,13.0,52,0.00,,---,0.00,VWS V14.00,2013-03-27 14:00:00,
2013-03-27 09:06:00,49.5,31.6,30.26,SSE,161,13.0,13.0,50,0.00,,---,0.00,VWS V14.00,2013-03-27 14:06:00,
2013-03-27 09:11:00,50.3,31.4,30.26,SSE,147,9.0,13.0,48,0.00,,---,0.00,VWS V14.00,2013-03-27 14:11:00,
2013-03-27 09:17:00,50.8,31.8,30.26,SE,143,9.0,21.0,48,0.00,,---,0.00,VWS V14.00,2013-03-27 14:17:00,
2013-03-27 09:22:00,51.3,31.8,30.26,SSE,149,8.0,16.0,47,0.00,,---,0.00,VWS V14.00,2013-03-27 14:22:00,
2013-03-27 09:27:00,51.8,32.8,30.25,SE,141,12.0,12.0,48,0.00,,---,0.00,VWS V14.00,2013-03-27 14:27:00,
2013-03-27 09:32:00,52.3,32.7,30.25,SE,135,6.0,14.0,47,0.00,,---,0.00,VWS V14.00,2013-03-27 14:32:00,
2013-03-27 09:37:00,53.0,32.2,30.25,SE,140,14.0,16.0,45,0.00,,---,0.00,VWS V14.00,2013-03-27 14:37:00,
2013-03-27 09:43:00,53.7,32.3,30.25,SSE,165,11.0,14.0,44,0.00,,---,0.00,VWS V14.00,2013-03-27 14:43:00,
2013-03-27 09:48:00,54.2,32.8,30.25,SSE,158,20.0,20.0,44,0.00,,---,0.00,VWS V14.00,2013-03-27 14:48:00,
2013-03-27 09:53:00,54.3,31.1,30.25,South,172,13.0,23.0,41,0.00,,---,0.00,VWS V14.00,2013-03-27 14:53:00,
2013-03-27 09:59:00,54.8,32.2,30.24,South,169,12.0,24.0,42,0.00,,---,0.00,VWS V14.00,2013-03-27 14:59:00,
2013-03-27 10:04:00,54.9,32.3,30.25,SSE,152,12.0,25.0,42,0.00,,---,0.00,VWS V14.00,2013-03-27 15:04:00,
2013-03-27 10:09:00,55.2,32.5,30.25,SSE,156,10.0,22.0,42,0.00,,---,0.00,VWS V14.00,2013-03-27 15:09:00,
2013-03-27 10:14:00,55.7,32.4,30.25,South,173,17.0,20.0,41,0.00,,---,0.00,VWS V14.00,2013-03-27 15:14:00,
2013-03-27 10:20:00,56.1,31.5,30.25,SSE,161,17.0,23.0,39,0.00,,---,0.00,VWS V14.00,2013-03-27 15:20:00,
2013-03-27 10:25:00,56.3,31.0,30.25,SSE,152,7.0,23.0,38,0.00,,---,0.00,VWS V14.00,2013-03-27 15:25:00,
2013-03-27 10:30:00,56.5,31.2,30.25,SSE,166,13.0,26.0,38,0.00,,---,0.00,VWS V14.00,2013-03-27 15:30:00,
2013-03-27 10:35:00,56.7,31.4,30.25,SE,143,11.0,25.0,38,0.00,,---,0.00,VWS V14.00,2013-03-27 15:35:00,
2013-03-27 10:40:00,56.9,30.9,30.25,SSE,154,8.0,22.0,37,0.00,,---,0.00,VWS V14.00,2013-03-27 15:40:00,
2013-03-27 10:46:00,57.3,31.3,30.25,SSE,164,14.0,21.0,37,0.00,,---,0.00,VWS V14.00,2013-03-27 15:46:00,
2013-03-27 10:51:00,57.8,31.0,30.25,South,177,14.0,20.0,36,0.00,,---,0.00,VWS V14.00,2013-03-27 15:51:00,
2013-03-27 10:57:00,58.4,32.9,30.25,SSE,154,15.0,20.0,38,0.00,,---,0.00,VWS V14.00,2013-03-27 15:57:00,
2013-03-27 11:02:00,58.5,31.7,30.24,South,187,17.0,25.0,36,0.00,,---,0.00,VWS V14.00,2013-03-27 16:02:00,
2013-03-27 11:07:00,59.1,32.9,30.24,SSW,205,12.0,18.0,37,0.00,,---,0.00,VWS V14.00,2013-03-27 16:07:00,
2013-03-27 11:13:00,59.6,31.9,30.24,SE,146,10.0,23.0,35,0.00,,---,0.00,VWS V14.00,2013-03-27 16:13:00,
2013-03-27 11:18:00,59.3,32.4,30.23,SSE,162,11.0,23.0,36,0.00,,---,0.00,VWS V14.00,2013-03-27 16:18:00,
2013-03-27 11:23:00,59.7,32.7,30.23,SE,142,13.0,22.0,36,0.00,,---,0.00,VWS V14.00,2013-03-27 16:23:00,
2013-03-27 11:28:00,59.8,33.5,30.23,South,173,9.0,22.0,37,0.00,,---,0.00,VWS V14.00,2013-03-27 16:28:00,
2013-03-27 11:34:00,59.7,33.4,30.23,SSE,168,9.0,22.0,37,0.00,,---,0.00,VWS V14.00,2013-03-27 16:34:00,
2013-03-27 11:39:00,60.2,34.5,30.23,SE,139,14.0,20.0,38,0.00,,---,0.00,VWS V14.00,2013-03-27 16:39:00,
2013-03-27 11:44:00,60.2,33.8,30.23,SSE,166,13.0,25.0,37,0.00,,---,0.00,VWS V14.00,2013-03-27 16:44:00,
2013-03-27 11:49:00,60.5,35.4,30.23,SSE,168,16.0,23.0,39,0.00,,---,0.00,VWS V14.00,2013-03-27 16:49:00,
2013-03-27 11:55:00,61.1,36.0,30.22,SSE,159,11.0,18.0,39,0.00,,---,0.00,VWS V14.00,2013-03-27 16:55:00,
2013-03-27 12:00:00,61.3,35.5,30.23,South,178,7.0,29.0,38,0.00,,---,0.00,VWS V14.00,2013-03-27 17:00:00,
2013-03-27 12:05:00,61.7,36.5,30.22,South,191,15.0,22.0,39,0.00,,---,0.00,VWS V14.00,2013-03-27 17:05:00,
2013-03-27 12:10:00,61.9,36.7,30.22,SSE,158,19.0,23.0,39,0.00,,---,0.00,VWS V14.00,2013-03-27 17:10:00,
2013-03-27 12:15:00,62.4,37.1,30.22,SSE,150,11.0,20.0,39,0.00,,---,0.00,VWS V14.00,2013-03-27 17:15:00,
2013-03-27 12:20:00,62.1,37.5,30.21,SSE,157,18.0,25.0,40,0.00,,---,0.00,VWS V14.00,2013-03-27 17:20:00,
2013-03-27 12:26:00,62.4,37.8,30.21,SSE,158,7.0,24.0,40,0.00,,---,0.00,VWS V14.00,2013-03-27 17:26:00,
2013-03-27 12:32:00,62.7,38.7,30.21,SSE,154,15.0,18.0,41,0.00,,---,0.00,VWS V14.00,2013-03-27 17:32:00,
2013-03-27 12:37:00,62.8,38.1,30.21,South,189,18.0,26.0,40,0.00,,---,0.00,VWS V14.00,2013-03-27 17:37:00,
2013-03-27 12:42:00,63.4,38.0,30.20,SSE,160,12.0,25.0,39,0.00,,---,0.00,VWS V14.00,2013-03-27 17:42:00,
2013-03-27 12:47:00,64.2,38.1,30.20,SSE,154,15.0,22.0,38,0.00,,---,0.00,VWS V14.00,2013-03-27 17:47:00,
2013-03-27 12:52:00,64.1,38.0,30.20,South,183,9.0,21.0,38,0.00,,---,0.00,VWS V14.00,2013-03-27 17:52:00,
2013-03-27 12:58:00,64.9,39.4,30.20,SSE,163,12.0,19.0,39,0.00,,---,0.00,VWS V14.00,2013-03-27 17:58:00,
2013-03-27 13:03:00,64.7,39.2,30.19,SSE,158,11.0,25.0,39,0.00,,---,0.00,VWS V14.00,2013-03-27 18:03:00,
2013-03-27 13:08:00,64.5,39.0,30.19,SSE,150,14.0,24.0,39,0.00,,---,0.00,VWS V14.00,2013-03-27 18:08:00,
2013-03-27 13:13:00,65.4,39.8,30.19,SSE,150,13.0,20.0,39,0.00,,---,0.00,VWS V14.00,2013-03-27 18:13:00,
2013-03-27 13:18:00,64.9,40.0,30.19,South,173,13.0,25.0,40,0.00,,---,0.00,VWS V14.00,2013-03-27 18:18:00,
2013-03-27 13:24:00,65.1,40.2,30.18,SW,222,15.0,28.0,40,0.00,,---,0.00,VWS V14.00,2013-03-27 18:24:00,
2013-03-27 13:29:00,65.2,40.3,30.18,South,177,12.0,26.0,40,0.00,,---,0.00,VWS V14.00,2013-03-27 18:29:00,
2013-03-27 13:34:00,66.0,41.0,30.18,SSE,165,11.0,19.0,40,0.00,,---,0.00,VWS V14.00,2013-03-27 18:34:00,
2013-03-27 13:39:00,65.4,40.5,30.17,SSE,154,18.0,28.0,40,0.00,,---,0.00,VWS V14.00,2013-03-27 18:39:00,
2013-03-27 13:44:00,65.6,40.0,30.17,South,170,12.0,25.0,39,0.00,,---,0.00,VWS V14.00,2013-03-27 18:44:00,
2013-03-27 13:49:00,65.9,40.3,30.17,South,180,13.0,23.0,39,0.00,,---,0.00,VWS V14.00,2013-03-27 18:49:00,
2013-03-27 13:55:00,66.2,40.5,30.17,South,174,13.0,24.0,39,0.00,,---,0.00,VWS V14.00,2013-03-27 18:55:00,
2013-03-27 14:00:00,66.3,40.6,30.16,South,188,16.0,23.0,39,0.00,,---,0.00,VWS V14.00,2013-03-27 19:00:00,
2013-03-27 14:05:00,66.1,40.5,30.16,South,181,11.0,26.0,39,0.00,,---,0.00,VWS V14.00,2013-03-27 19:05:00,
2013-03-27 14:10:00,66.6,40.9,30.16,South,183,22.0,30.0,39,0.00,,---,0.00,VWS V14.00,2013-03-27 19:10:00,
2013-03-27 14:15:00,66.5,40.8,30.15,South,173,5.0,21.0,39,0.00,,---,0.00,VWS V14.00,2013-03-27 19:15:00,
2013-03-27 14:20:00,66.8,41.1,30.15,ESE,122,20.0,28.0,39,0.00,,---,0.00,VWS V14.00,2013-03-27 19:20:00,
2013-03-27 14:26:00,67.1,41.3,30.15,SSE,161,10.0,22.0,39,0.00,,---,0.00,VWS V14.00,2013-03-27 19:26:00,
2013-03-27 14:31:00,67.2,41.4,30.14,SSE,164,10.0,24.0,39,0.00,,---,0.00,VWS V14.00,2013-03-27 19:31:00,
2013-03-27 14:36:00,67.3,41.5,30.14,SE,138,16.0,19.0,39,0.00,,---,0.00,VWS V14.00,2013-03-27 19:36:00,
2013-03-27 14:41:00,67.7,41.2,30.14,SSE,160,19.0,23.0,38,0.00,,---,0.00,VWS V14.00,2013-03-27 19:41:00,
2013-03-27 14:47:00,67.8,41.3,30.14,SSE,150,12.0,22.0,38,0.00,,---,0.00,VWS V14.00,2013-03-27 19:47:00,
2013-03-27 14:52:00,68.0,41.5,30.13,SSE,158,11.0,19.0,38,0.00,,---,0.00,VWS V14.00,2013-03-27 19:52:00,
2013-03-27 14:57:00,67.9,41.4,30.13,South,174,11.0,20.0,38,0.00,,---,0.00,VWS V14.00,2013-03-27 19:57:00,
2013-03-27 15:02:00,68.2,41.7,30.12,SE,141,9.0,24.0,38,0.00,,---,0.00,VWS V14.00,2013-03-27 20:02:00,
2013-03-27 15:07:00,68.3,41.7,30.12,SSE,162,11.0,22.0,38,0.00,,---,0.00,VWS V14.00,2013-03-27 20:07:00,
2013-03-27 15:13:00,68.9,43.0,30.12,South,188,18.0,18.0,39,0.00,,---,0.00,VWS V14.00,2013-03-27 20:13:00,
2013-03-27 15:18:00,68.6,42.0,30.11,SSW,202,17.0,24.0,38,0.00,,---,0.00,VWS V14.00,2013-03-27 20:18:00,
2013-03-27 15:23:00,68.3,41.7,30.11,SE,128,13.0,22.0,38,0.00,,---,0.00,VWS V14.00,2013-03-27 20:23:00,
2013-03-27 15:28:00,68.5,42.6,30.11,SE,146,8.0,22.0,39,0.00,,---,0.00,VWS V14.00,2013-03-27 20:28:00,
2013-03-27 15:34:00,69.0,42.4,30.11,South,179,16.0,19.0,38,0.00,,---,0.00,VWS V14.00,2013-03-27 20:34:00,
2013-03-27 15:39:00,69.0,42.4,30.10,South,180,11.0,18.0,38,0.00,,---,0.00,VWS V14.00,2013-03-27 20:39:00,
2013-03-27 15:44:00,68.8,42.2,30.10,SSE,156,17.0,20.0,38,0.00,,---,0.00,VWS V14.00,2013-03-27 20:44:00,
2013-03-27 15:49:00,68.9,43.0,30.09,SSE,156,1.0,21.0,39,0.00,,---,0.00,VWS V14.00,2013-03-27 20:49:00,
2013-03-27 15:54:00,69.3,42.6,30.09,SSE,158,14.0,25.0,38,0.00,,---,0.00,VWS V14.00,2013-03-27 20:54:00,
2013-03-27 15:59:00,69.7,42.3,30.09,ESE,122,20.0,20.0,37,0.00,,---,0.00,VWS V14.00,2013-03-27 20:59:00,
2013-03-27 16:04:00,69.3,42.6,30.08,SE,143,9.0,26.0,38,0.00,,---,0.00,VWS V14.00,2013-03-27 21:04:00,
2013-03-27 16:09:00,69.8,42.4,30.08,SSE,148,8.0,19.0,37,0.00,,---,0.00,VWS V14.00,2013-03-27 21:09:00,
2013-03-27 16:15:00,69.7,42.3,30.08,SSE,165,15.0,21.0,37,0.00,,---,0.00,VWS V14.00,2013-03-27 21:15:00,
2013-03-27 16:20:00,69.8,43.1,30.07,SSE,152,11.0,20.0,38,0.00,,---,0.00,VWS V14.00,2013-03-27 21:20:00,
2013-03-27 16:25:00,70.0,43.2,30.07,SE,143,13.0,22.0,38,0.00,,---,0.00,VWS V14.00,2013-03-27 21:25:00,
2013-03-27 16:30:00,70.5,43.0,30.07,SE,139,6.0,20.0,37,0.00,,---,0.00,VWS V14.00,2013-03-27 21:30:00,
2013-03-27 16:35:00,70.2,42.7,30.07,SSE,158,14.0,22.0,37,0.00,,---,0.00,VWS V14.00,2013-03-27 21:35:00,
2013-03-27 16:40:00,70.0,43.2,30.06,SSE,159,8.0,21.0,38,0.00,,---,0.00,VWS V14.00,2013-03-27 21:40:00,
2013-03-27 16:46:00,70.1,43.3,30.06,SSE,160,7.0,17.0,38,0.00,,---,0.00,VWS V14.00,2013-03-27 21:46:00,
2013-03-27 16:51:00,70.7,43.9,30.06,SSE,149,10.0,21.0,38,0.00,,---,0.00,VWS V14.00,2013-03-27 21:51:00,
2013-03-27 16:56:00,70.3,42.8,30.06,South,181,12.0,22.0,37,0.00,,---,0.00,VWS V14.00,2013-03-27 21:56:00,
2013-03-27 17:01:00,70.4,43.6,30.06,SSE,154,14.0,20.0,38,0.00,,---,0.00,VWS V14.00,2013-03-27 22:01:00,
2013-03-27 17:06:00,70.3,43.5,30.05,SE,137,9.0,18.0,38,0.00,,---,0.00,VWS V14.00,2013-03-27 22:06:00,
2013-03-27 17:12:00,70.5,43.0,30.05,South,185,8.0,22.0,37,0.00,,---,0.00,VWS V14.00,2013-03-27 22:12:00,
2013-03-27 17:17:00,70.6,43.1,30.06,South,191,7.0,25.0,37,0.00,,---,0.00,VWS V14.00,2013-03-27 22:17:00,
2013-03-27 17:22:00,70.9,43.4,30.06,South,185,6.0,22.0,37,0.00,,---,0.00,VWS V14.00,2013-03-27 22:22:00,
2013-03-27 17:27:00,71.0,43.4,30.06,SSE,164,5.0,17.0,37,0.00,,---,0.00,VWS V14.00,2013-03-27 22:27:00,
2013-03-27 17:32:00,70.6,43.1,30.05,SSW,199,12.0,23.0,37,0.00,,---,0.00,VWS V14.00,2013-03-27 22:32:00,
2013-03-27 17:38:00,70.5,43.7,30.05,SSE,160,9.0,20.0,38,0.00,,---,0.00,VWS V14.00,2013-03-27 22:38:00,
2013-03-27 17:44:00,70.5,43.7,30.05,SSE,161,9.0,21.0,38,0.00,,---,0.00,VWS V14.00,2013-03-27 22:44:00,
2013-03-27 17:49:00,70.6,43.1,30.04,North,359,12.0,23.0,37,0.00,,---,0.00,VWS V14.00,2013-03-27 22:49:00,
2013-03-27 17:54:00,70.4,43.6,30.04,SSE,149,9.0,23.0,38,0.00,,---,0.00,VWS V14.00,2013-03-27 22:54:00,
2013-03-27 18:00:00,70.7,43.9,30.04,South,179,9.0,18.0,38,0.00,,---,0.00,VWS V14.00,2013-03-27 23:00:00,
2013-03-27 18:05:00,70.4,43.6,30.05,South,187,10.0,20.0,38,0.00,,---,0.00,VWS V14.00,2013-03-27 23:05:00,
2013-03-27 18:10:00,70.3,44.2,30.05,SE,137,9.0,17.0,39,0.00,,---,0.00,VWS V14.00,2013-03-27 23:10:00,
2013-03-27 18:15:00,70.3,44.2,30.05,SSE,154,9.0,22.0,39,0.00,,---,0.00,VWS V14.00,2013-03-27 23:15:00,
2013-03-27 18:21:00,70.3,44.2,30.05,South,187,7.0,22.0,39,0.00,,---,0.00,VWS V14.00,2013-03-27 23:21:00,
2013-03-27 18:26:00,69.8,43.8,30.04,SSE,168,12.0,19.0,39,0.00,,---,0.00,VWS V14.00,2013-03-27 23:26:00,
2013-03-27 18:31:00,69.4,44.1,30.04,SSE,163,11.0,21.0,40,0.00,,---,0.00,VWS V14.00,2013-03-27 23:31:00,
2013-03-27 18:36:00,69.3,44.0,30.04,SSE,147,11.0,18.0,40,0.00,,---,0.00,VWS V14.00,2013-03-27 23:36:00,
2013-03-27 18:41:00,69.2,43.9,30.04,SSE,160,5.0,21.0,40,0.00,,---,0.00,VWS V14.00,2013-03-27 23:41:00,
2013-03-27 18:47:00,69.0,44.3,30.04,SSE,156,7.0,22.0,41,0.00,,---,0.00,VWS V14.00,2013-03-27 23:47:00,
2013-03-27 18:52:00,68.8,44.2,30.04,South,169,8.0,15.0,41,0.00,,---,0.00,VWS V14.00,2013-03-27 23:52:00,
2013-03-27 18:57:00,68.6,44.6,30.04,SSE,156,4.0,18.0,42,0.00,,---,0.00,VWS V14.00,2013-03-27 23:57:00,
2013-03-27 19:02:00,68.6,45.2,30.05,South,172,7.0,17.0,43,0.00,,---,0.00,VWS V14.00,2013-03-28 00:02:00,
2013-03-27 19:07:00,68.4,45.0,30.05,SSE,151,10.0,15.0,43,0.00,,---,0.00,VWS V14.00,2013-03-28 00:07:00,
2013-03-27 19:13:00,68.2,44.9,30.05,SSE,162,14.0,16.0,43,0.00,,---,0.00,VWS V14.00,2013-03-28 00:13:00,
2013-03-27 19:18:00,67.8,45.1,30.05,South,177,11.0,17.0,44,0.00,,---,0.00,VWS V14.00,2013-03-28 00:18:00,
2013-03-27 19:23:00,67.5,44.8,30.05,South,174,12.0,12.0,44,0.00,,---,0.00,VWS V14.00,2013-03-28 00:23:00,
2013-03-27 19:28:00,67.2,45.2,30.05,South,170,5.0,11.0,45,0.00,,---,0.00,VWS V14.00,2013-03-28 00:28:00,
2013-03-27 19:34:00,66.8,45.4,30.05,South,170,5.0,12.0,46,0.00,,---,0.00,VWS V14.00,2013-03-28 00:34:00,
2013-03-27 19:39:00,66.6,45.2,30.04,South,184,5.0,15.0,46,0.00,,---,0.00,VWS V14.00,2013-03-28 00:39:00,
2013-03-27 19:44:00,66.3,44.9,30.04,South,175,5.0,12.0,46,0.00,,---,0.00,VWS V14.00,2013-03-28 00:44:00,
2013-03-27 19:49:00,65.9,45.1,30.04,SSE,160,9.0,11.0,47,0.00,,---,0.00,VWS V14.00,2013-03-28 00:49:00,
2013-03-27 19:55:00,65.8,45.0,30.04,South,171,5.0,16.0,47,0.00,,---,0.00,VWS V14.00,2013-03-28 00:55:00,
2013-03-27 20:00:00,65.6,44.8,30.04,SSE,153,4.0,15.0,47,0.00,,---,0.00,VWS V14.00,2013-03-28 01:00:00,
2013-03-27 20:05:00,65.3,45.1,30.04,SSE,148,9.0,11.0,48,0.00,,---,0.00,VWS V14.00,2013-03-28 01:05:00,
2013-03-27 20:11:00,65.2,45.0,30.04,South,187,7.0,19.0,48,0.00,,---,0.00,VWS V14.00,2013-03-28 01:11:00,
2013-03-27 20:16:00,65.0,44.8,30.05,SSE,155,5.0,13.0,48,0.00,,---,0.00,VWS V14.00,2013-03-28 01:16:00,
2013-03-27 20:22:00,64.9,44.8,30.05,SSE,162,7.0,12.0,48,0.00,,---,0.00,VWS V14.00,2013-03-28 01:22:00,
2013-03-27 20:27:00,64.5,44.9,30.05,SSE,160,3.0,10.0,49,0.00,,---,0.00,VWS V14.00,2013-03-28 01:27:00,
2013-03-27 20:33:00,64.0,45.0,30.05,SSE,166,2.0,9.0,50,0.00,,---,0.00,VWS V14.00,2013-03-28 01:33:00,
2013-03-27 20:38:00,63.7,44.7,30.05,SSE,158,5.0,8.0,50,0.00,,---,0.00,VWS V14.00,2013-03-28 01:38:00,
2013-03-27 20:43:00,63.5,45.1,30.05,SSE,165,6.0,13.0,51,0.00,,---,0.00,VWS V14.00,2013-03-28 01:43:00,
2013-03-27 20:48:00,63.3,44.9,30.05,SE,131,8.0,14.0,51,0.00,,---,0.00,VWS V14.00,2013-03-28 01:48:00,
2013-03-27 20:53:00,63.1,44.7,30.05,SSE,158,2.0,9.0,51,0.00,,---,0.00,VWS V14.00,2013-03-28 01:53:00,
2013-03-27 20:59:00,62.9,45.0,30.06,SSE,154,6.0,8.0,52,0.00,,---,0.00,VWS V14.00,2013-03-28 01:59:00,
2013-03-27 21:04:00,62.7,44.8,30.06,SE,138,9.0,10.0,52,0.00,,---,0.00,VWS V14.00,2013-03-28 02:04:00,
2013-03-27 21:10:00,62.5,44.7,30.06,SSE,164,4.0,11.0,52,0.00,,---,0.00,VWS V14.00,2013-03-28 02:10:00,
2013-03-27 21:15:00,62.4,45.1,30.06,South,177,10.0,10.0,53,0.00,,---,0.00,VWS V14.00,2013-03-28 02:15:00,
2013-03-27 21:20:00,62.4,45.1,30.06,SSE,151,4.0,11.0,53,0.00,,---,0.00,VWS V14.00,2013-03-28 02:20:00,
2013-03-27 21:25:00,62.3,45.0,30.06,SE,139,5.0,11.0,53,0.00,,---,0.00,VWS V14.00,2013-03-28 02:25:00,
2013-03-27 21:30:00,62.2,45.4,30.07,SSE,151,1.0,10.0,54,0.00,,---,0.00,VWS V14.00,2013-03-28 02:30:00,
2013-03-27 21:35:00,62.0,45.2,30.07,SE,125,6.0,10.0,54,0.00,,---,0.00,VWS V14.00,2013-03-28 02:35:00,
2013-03-27 21:41:00,61.8,45.0,30.07,SSE,158,4.0,10.0,54,0.00,,---,0.00,VWS V14.00,2013-03-28 02:41:00,
2013-03-27 21:46:00,61.6,45.3,30.07,SSE,151,4.0,10.0,55,0.00,,---,0.00,VWS V14.00,2013-03-28 02:46:00,
2013-03-27 21:52:00,61.4,45.6,30.07,SE,146,6.0,12.0,56,0.00,,---,0.00,VWS V14.00,2013-03-28 02:52:00,
2013-03-27 21:57:00,61.3,45.5,30.08,SE,141,3.0,10.0,56,0.00,,---,0.00,VWS V14.00,2013-03-28 02:57:00,
2013-03-27 22:02:00,61.2,45.4,30.08,SE,136,5.0,9.0,56,0.00,,---,0.00,VWS V14.00,2013-03-28 03:02:00,
2013-03-27 22:08:00,60.9,45.6,30.08,SE,138,2.0,6.0,57,0.00,,---,0.00,VWS V14.00,2013-03-28 03:08:00,
2013-03-27 22:13:00,60.5,45.2,30.08,SE,140,6.0,6.0,57,0.00,,---,0.00,VWS V14.00,2013-03-28 03:13:00,
2013-03-27 22:18:00,60.3,45.5,30.08,SSE,149,5.0,7.0,58,0.00,,---,0.00,VWS V14.00,2013-03-28 03:18:00,
2013-03-27 22:24:00,60.0,45.2,30.08,SE,146,2.0,6.0,58,0.00,,---,0.00,VWS V14.00,2013-03-28 03:24:00,
2013-03-27 22:29:00,59.8,45.5,30.09,SE,138,4.0,10.0,59,0.00,,---,0.00,VWS V14.00,2013-03-28 03:29:00,
2013-03-27 22:34:00,59.7,45.4,30.09,SE,139,4.0,8.0,59,0.00,,---,0.00,VWS V14.00,2013-03-28 03:34:00,
2013-03-27 22:40:00,59.6,45.3,30.09,SSE,152,4.0,7.0,59,0.00,,---,0.00,VWS V14.00,2013-03-28 03:40:00,
2013-03-27 22:45:00,59.5,45.6,30.09,SSE,147,4.0,9.0,60,0.00,,---,0.00,VWS V14.00,2013-03-28 03:45:00,
2013-03-27 22:51:00,59.6,45.7,30.09,SSE,156,5.0,8.0,60,0.00,,---,0.00,VWS V14.00,2013-03-28 03:51:00,
2013-03-27 22:56:00,59.6,45.7,30.09,SE,139,5.0,9.0,60,0.00,,---,0.00,VWS V14.00,2013-03-28 03:56:00,
2013-03-27 23:00:00,59.5,45.6,30.10,SE,125,5.0,8.0,60,0.00,,---,0.00,VWS V14.00,2013-03-28 04:00:00,
2013-03-27 23:03:00,59.3,45.4,30.10,SE,139,3.0,9.0,60,0.00,,---,0.00,VWS V14.00,2013-03-28 04:03:00,
2013-03-27 23:08:00,59.1,45.7,30.10,SE,135,5.0,9.0,61,0.00,,---,0.00,VWS V14.00,2013-03-28 04:08:00,
2013-03-27 23:13:00,58.9,45.5,30.10,SE,141,4.0,9.0,61,0.00,,---,0.00,VWS V14.00,2013-03-28 04:13:00,
2013-03-27 23:18:00,58.8,45.4,30.10,SE,138,6.0,10.0,61,0.00,,---,0.00,VWS V14.00,2013-03-28 04:18:00,
2013-03-27 23:23:00,58.6,45.6,30.10,SE,144,5.0,8.0,62,0.00,,---,0.00,VWS V14.00,2013-03-28 04:23:00,
2013-03-27 23:28:00,58.5,45.5,30.10,SE,135,5.0,8.0,62,0.00,,---,0.00,VWS V14.00,2013-03-28 04:28:00,
2013-03-27 23:34:00,58.4,45.5,30.10,SE,137,5.0,9.0,62,0.00,,---,0.00,VWS V14.00,2013-03-28 04:34:00,
2013-03-27 23:39:00,58.2,45.7,30.10,SE,129,3.0,9.0,63,0.00,,---,0.00,VWS V14.00,2013-03-28 04:39:00,
2013-03-27 23:44:00,58.1,45.6,30.10,SE,131,8.0,10.0,63,0.00,,---,0.00,VWS V14.00,2013-03-28 04:44:00,
2013-03-27 23:49:00,58.0,45.5,30.10,SE,137,7.0,8.0,63,0.00,,---,0.00,VWS V14.00,2013-03-28 04:49:00,
2013-03-27 23:54:00,58.0,45.9,30.10,SE,139,5.0,8.0,64,0.00,,---,0.00,VWS V14.00,2013-03-28 04:54:00,